USA 40 R/B DEB, 44524

Orbit data source: Space-Track

USA 40 R/B DEB, 44524 is space debris originally from a launch on Tue, 08 Aug 1989 UTC launched from the Air Force Eastern Test Range (AFETR). Debris objects in space refer to the collection of defunct objects orbiting the Earth. Examples of debris include non-operational satellites, rocket bodies, and fragments generated from explosions, collisions, or faulty payload assembly.

Loading next visibility...
Identifier
44524, 1989-061BX
Orbit
Active
Country
Flag of USUS
Related business
Manufacturer
Unknown
Mission
Spacecraft
Bus & Motor
Unknown
Mass
Unknown
Launch date (UTC)
1989-08-08 (37 years ago)
Launch vehicle
Unknown
Launch site
Air Force Eastern Test Range (AFETR)
Object type
Payload
Rocket body
Debris
Shape & HBR
Unknown shape, 0.1 m
Radar Cross Section
Small (<0.1 m²)

Expand to show TLE details & history
Last TLE update: 2 days ago

TLE from 2 days ago
0 USA 40 R/B DEB
1 44524U 89061BX  26093.03352761  .00024146  00000-0  97724-2 0  9998
2 44524  57.0254 322.1482 2818726 191.1158 161.1796  9.35612487199168
Epoch: 2026-04-03T00:48Z
TLE epoch observation values (Epoch: 2026-04-03T00:48:16.785Z)
Latitude
-0.00006°
Longitude
118.70476°
Altitude
5,729.834 km
Speed
4.895 km/s
True Right ascension
21h 28m 35s
True Declination
0° 00' 00"
Sunlit
Object was in daylight at epoch
Visualization orbit readout
Latitude
Unknown
Longitude
Unknown
Altitude
Unknown
Speed
Unknown
Apparent Right ascension
Unknown
Apparent Declination
Unknown
Sunlit
N/A
Visualization observer readout
Local Sidereal Time
20:50:08
Azimuth
Unknown
Elevation
Unknown
Doppler factor
Unknown
Orbital elements
Apogee altitude
5,816.522 km
Perigee altitude
453.524 km
Semi-major axis
9,513.16 km
Eccentricity
0.28187
Inclination
57.0254°
RAAN
322.1482°
Arg. of periapsis
191.1158°
True anomaly
168.95768°
Mean anomaly
161.1796°
Eccentric anomaly
165.28257°
Mean motion
2.33914 °/min
Orbital period
153.9 mins
BSTAR
0.0097724
Loading maneuver chart data...
Computing Atmospheric mass density...
Loading historical data...
Loading historical data...
Loading historical data...
Loading historical data...
Loading historical data...
Loading historical data...
Loading historical data...

Documentation

Showing up to 5 results
|